Location: Jetmore Motorplex
(37.9889°N, 99.8876°W)
Time: 04:51:08
(UTC+00:00)

STARLINK-22 - Pass Details

Date: 17 February 2020
Orbit: 388 x 401 km, 53.0° (Epoch: 02 April)

Event Time Altitude Azimuth Distance (km) Brightness Sun altitude
Rises 01:08:38 0° 206° (SSW) 2,257 7.3 -10.4°
Reaches altitude 10° 01:10:49 10° 195° (SSW) 1,407 6.0 -10.8°
Maximum altitude 01:13:37 30° 132° (SE) 729 3.9 -11.4°
Enters shadow 01:15:06 20° 86° (E) 968 4.2 -11.7°
